owner,sensor,date,latitude,longitude,vertical_datum,wind_speed,wind_to_direction,wind_speed_of_gust,qcFlag 
TABS,ioos:station:wmo:42046:1,2005-08-01T00:00:00Z,27.8903,-94.0367,4.0,3.081460693,25.98269482,3.82,'11111222,11111222,11111222' 
TABS,ioos:station:wmo:42046:1,2005-08-01T00:30:00Z,27.8903,-94.0367,4.0,3.345399827,25.87542575,4.38,'11111222,11111222,11111222' 
TABS,ioos:station:wmo:42046:1,2005-08-01T01:00:00Z,27.8903,-94.0367,4.0,3.02887768,34.37183708,3.86,'11111222,11111222,11111222' 
TABS,ioos:station:wmo:42046:1,2005-08-01T01:30:00Z,27.8903,-94.0367,4.0,2.680018657,36.65581224,3.59,'11111222,11111222,11111222' 
TABS,ioos:station:wmo:42046:1,2005-08-01T02:00:00Z,27.8903,-94.0367,4.0,2.303844613,40.95166443,3.32,'11111222,11111222,11111222' 
TABS,ioos:station:wmo:42046:1,2005-08-01T02:30:00Z,27.8903,-94.0367,4.0,2.121744565,56.53427799,2.92,'11111222,11111222,11111222' 
TABS,ioos:station:wmo:42046:1,2005-08-01T03:00:00Z,27.8903,-94.0367,4.0,1.954507611,64.2212085,2.71,'11111222,11111222,11111222' 
TABS,ioos:station:wmo:42046:1,2005-08-01T03:30:00Z,27.8903,-94.0367,4.0,1.382244551,64.73232767,1.89,'11111222,11111222,11111222' 
TABS,ioos:station:wmo:42046:1,2005-08-01T04:00:00Z,27.8903,-94.0367,4.0,1.294024729,45.31277215,2.04,'11111222,11111222,11111222' 
TABS,ioos:station:wmo:42046:1,2005-08-01T04:30:00Z,27.8903,-94.0367,4.0,0.71063352,87.58007552,1.13,'11111222,11111222,11111222' 
TABS,ioos:station:wmo:42046:1,2005-08-01T05:00:00Z,27.8903,-94.0367,4.0,1.208139065,109.3351842,1.63,'11111222,11111222,11111222' 
TABS,ioos:station:wmo:42046:1,2005-08-01T05:30:00Z,27.8903,-94.0367,4.0,0.760263112,88.49214685,1.46,'11111222,11111222,11111222' 
TABS,ioos:station:wmo:42046:1,2005-08-01T06:00:00Z,27.8903,-94.0367,4.0,0.926552751,71.76022089,1.52,'11111222,11111222,11111222' 
TABS,ioos:station:wmo:42046:1,2005-08-01T06:30:00Z,27.8903,-94.0367,4.0,1.154339638,72.34949614,1.87,'11111222,11111222,11111222' 
TABS,ioos:station:wmo:42046:1,2005-08-01T07:00:00Z,27.8903,-94.0367,4.0,0.600749532,92.86281945,1.36,'11111222,11111222,11111222' 
TABS,ioos:station:wmo:42046:1,2005-08-01T07:30:00Z,27.8903,-94.0367,4.0,0.333766385,81.38395105,0.72,'11111222,11111222,11111222' 
TABS,ioos:station:wmo:42046:1,2005-08-01T08:00:00Z,27.8903,-94.0367,4.0,0.308868904,209.0547466,0.65,'11111222,11111222,11111222' 
TABS,ioos:station:wmo:42046:1,2005-08-01T08:30:00Z,27.8903,-94.0367,4.0,0.694622199,292.8736117,1.16,'11111222,11111222,11111222' 
TABS,ioos:station:wmo:42046:1,2005-08-01T09:00:00Z,27.8903,-94.0367,4.0,0.596824932,278.6731538,1.15,'11111222,11111222,11111222' 
TABS,ioos:station:wmo:42046:1,2005-08-01T09:30:00Z,27.8903,-94.0367,4.0,0.440113622,268.6980504,0.84,'11111222,11111222,11111222' 
TABS,ioos:station:wmo:42046:1,2005-08-01T10:00:00Z,27.8903,-94.0367,4.0,0.997647232,298.1062041,1.66,'11111222,11111222,11111222' 
TABS,ioos:station:wmo:42046:1,2005-08-01T10:30:00Z,27.8903,-94.0367,4.0,1.419929576,281.7847209,2.2,'11111222,11111222,11111222' 
TABS,ioos:station:wmo:42046:1,2005-08-01T11:00:00Z,27.8903,-94.0367,4.0,1.773414785,328.3711955,2.86,'11111222,11111222,11111222' 
TABS,ioos:station:wmo:42046:1,2005-08-01T11:30:00Z,27.8903,-94.0367,4.0,1.975702407,320.7512834,2.72,'11111222,11111222,11111222' 
TABS,ioos:station:wmo:42046:1,2005-08-01T12:00:00Z,27.8903,-94.0367,4.0,0.913947482,287.8401626,1.73,'11111222,11111222,11111222' 
TABS,ioos:station:wmo:42046:1,2005-08-01T12:30:00Z,27.8903,-94.0367,4.0,2.051194774,301.4427335,2.69,'11111222,11111222,11111222' 
TABS,ioos:station:wmo:42046:1,2005-08-01T13:00:00Z,27.8903,-94.0367,4.0,1.422005626,306.7086427,2.1,'11111222,11111222,11111222' 
TABS,ioos:station:wmo:42046:1,2005-08-01T13:30:00Z,27.8903,-94.0367,4.0,1.851620912,344.0119267,2.83,'11111222,11111222,11111222' 
TABS,ioos:station:wmo:42046:1,2005-08-01T14:00:00Z,27.8903,-94.0367,4.0,1.29034879,342.4074061,1.89,'11111222,11111222,11111222' 
TABS,ioos:station:wmo:42046:1,2005-08-01T14:30:00Z,27.8903,-94.0367,4.0,0.853756406,346.4518822,1.28,'11111222,11111222,11111222' 
TABS,ioos:station:wmo:42046:1,2005-08-01T15:00:00Z,27.8903,-94.0367,4.0,0.808084154,319.0140611,1.35,'11111222,11111222,11111222' 
TABS,ioos:station:wmo:42046:1,2005-08-01T15:30:00Z,27.8903,-94.0367,4.0,1.160775603,337.1901318,1.88,'11111222,11111222,11111222' 
TABS,ioos:station:wmo:42046:1,2005-08-01T16:00:00Z,27.8903,-94.0367,4.0,0.962133047,322.1771238,1.47,'11111222,11111222,11111222' 
TABS,ioos:station:wmo:42046:1,2005-08-01T16:30:00Z,27.8903,-94.0367,4.0,1.179025021,347.2601725,2.08,'11111222,11111222,11111222' 
TABS,ioos:station:wmo:42046:1,2005-08-01T17:00:00Z,27.8903,-94.0367,4.0,0.91241438,350.5374895,2.01,'11111222,11111222,11111222' 
TABS,ioos:station:wmo:42046:1,2005-08-01T17:30:00Z,27.8903,-94.0367,4.0,0.528866713,15.34989014,1.52,'11111222,11111222,11111222' 
TABS,ioos:station:wmo:42046:1,2005-08-01T18:00:00Z,27.8903,-94.0367,4.0,0.949368211,336.4050241,1.99,'11111222,11111222,11111222' 
TABS,ioos:station:wmo:42046:1,2005-08-01T18:30:00Z,27.8903,-94.0367,4.0,0.792022727,114.6239281,1.76,'11111222,11111222,11111222' 
TABS,ioos:station:wmo:42046:1,2005-08-01T19:00:00Z,27.8903,-94.0367,4.0,0.954829828,136.2733427,2.39,'11111222,11111222,11111222' 
TABS,ioos:station:wmo:42046:1,2005-08-01T19:30:00Z,27.8903,-94.0367,4.0,1.287633488,136.8884993,2.23,'11111222,11111222,11111222' 
TABS,ioos:station:wmo:42046:1,2005-08-01T20:00:00Z,27.8903,-94.0367,4.0,1.584834376,160.0789249,3.04,'11111222,11111222,11111222' 
TABS,ioos:station:wmo:42046:1,2005-08-01T20:30:00Z,27.8903,-94.0367,4.0,1.04995238,162.2555803,1.96,'11111222,11111222,11111222' 
TABS,ioos:station:wmo:42046:1,2005-08-01T21:00:00Z,27.8903,-94.0367,4.0,1.355912977,166.7839173,2.07,'11111222,11111222,11111222' 
TABS,ioos:station:wmo:42046:1,2005-08-01T21:30:00Z,27.8903,-94.0367,4.0,0.941116358,255.2254843,1.81,'11111222,11111222,11111222' 
TABS,ioos:station:wmo:42046:1,2005-08-01T22:00:00Z,27.8903,-94.0367,4.0,1.047091209,208.5232624,1.71,'11111222,11111222,11111222' 
TABS,ioos:station:wmo:42046:1,2005-08-01T22:30:00Z,27.8903,-94.0367,4.0,0.950841732,182.4112346,1.84,'11111222,11111222,11111222' 
TABS,ioos:station:wmo:42046:1,2005-08-01T23:00:00Z,27.8903,-94.0367,4.0,0.588982173,139.8210705,1.35,'11111222,11111222,11111222' 
TABS,ioos:station:wmo:42046:1,2005-08-01T23:30:00Z,27.8903,-94.0367,4.0,0.933916484,167.0056241,2.17,'11111222,11111222,11111222' 
TABS,ioos:station:wmo:42046:1,2005-08-02T00:00:00Z,27.8903,-94.0367,4.0,1.964917301,151.0872846,2.77,'11111222,11111222,11111222' 
TABS,ioos:station:wmo:42046:1,2005-08-02T00:30:00Z,27.8903,-94.0367,4.0,1.951435369,168.1720665,2.99,'11111222,11111222,11111222' 
TABS,ioos:station:wmo:42046:1,2005-08-02T01:00:00Z,27.8903,-94.0367,4.0,2.546860813,159.7865086,3.37,'11111222,11111222,11111222' 
TABS,ioos:station:wmo:42046:1,2005-08-02T01:30:00Z,27.8903,-94.0367,4.0,2.155945268,152.36551,3.09,'11111222,11111222,11111222' 
TABS,ioos:station:wmo:42046:1,2005-08-02T02:00:00Z,27.8903,-94.0367,4.0,2.143105224,158.9435541,3.34,'11111222,11111222,11111222' 
TABS,ioos:station:wmo:42046:1,2005-08-02T02:30:00Z,27.8903,-94.0367,4.0,1.827046797,150.4887809,2.74,'11111222,11111222,11111222' 
TABS,ioos:station:wmo:42046:1,2005-08-02T03:00:00Z,27.8903,-94.0367,4.0,3.339850296,160.588769,4.92,'11111222,11111222,11111222' 
TABS,ioos:station:wmo:42046:1,2005-08-02T03:30:00Z,27.8903,-94.0367,4.0,3.946859511,155.4481853,5.37,'11111222,11111222,11111222' 
TABS,ioos:station:wmo:42046:1,2005-08-02T04:00:00Z,27.8903,-94.0367,4.0,3.989235516,153.8206123,4.87,'11111222,11111222,11111222' 
TABS,ioos:station:wmo:42046:1,2005-08-02T04:30:00Z,27.8903,-94.0367,4.0,4.016876896,154.6473092,5.27,'11111222,11111222,11111222' 
TABS,ioos:station:wmo:42046:1,2005-08-02T05:00:00Z,27.8903,-94.0367,4.0,4.626024211,156.4276233,5.81,'11111222,11111222,11111222' 
TABS,ioos:station:wmo:42046:1,2005-08-02T05:30:00Z,27.8903,-94.0367,4.0,4.984536087,160.5474689,6.39,'11111222,11111222,11111222' 
TABS,ioos:station:wmo:42046:1,2005-08-02T06:00:00Z,27.8903,-94.0367,4.0,5.003938449,166.7138273,6.03,'11111222,11111222,11111222' 
TABS,ioos:station:wmo:42046:1,2005-08-02T06:30:00Z,27.8903,-94.0367,4.0,5.291814434,174.7959912,6.57,'11111222,11111222,11111222' 
TABS,ioos:station:wmo:42046:1,2005-08-02T07:00:00Z,27.8903,-94.0367,4.0,5.440018382,183.4779888,6.82,'11111222,11111222,11111222' 
TABS,ioos:station:wmo:42046:1,2005-08-02T07:30:00Z,27.8903,-94.0367,4.0,5.163303206,185.4457901,6.47,'11111222,11111222,11111222' 
TABS,ioos:station:wmo:42046:1,2005-08-02T08:00:00Z,27.8903,-94.0367,4.0,4.203772116,184.6393347,5.38,'11111222,11111222,11111222' 
TABS,ioos:station:wmo:42046:1,2005-08-02T08:30:00Z,27.8903,-94.0367,4.0,3.750546627,188.4327567,4.91,'11111222,11111222,11111222' 
TABS,ioos:station:wmo:42046:1,2005-08-02T09:00:00Z,27.8903,-94.0367,4.0,4.057302059,198.8370276,5.09,'11111222,11111222,11111222' 
TABS,ioos:station:wmo:42046:1,2005-08-02T09:30:00Z,27.8903,-94.0367,4.0,3.711293575,209.1897008,4.85,'11111222,11111222,11111222' 
TABS,ioos:station:wmo:42046:1,2005-08-02T10:00:00Z,27.8903,-94.0367,4.0,3.872892976,206.3667165,5.0,'11111222,11111222,11111222' 
TABS,ioos:station:wmo:42046:1,2005-08-02T10:30:00Z,27.8903,-94.0367,4.0,4.1560077,216.9803117,5.21,'11111222,11111222,11111222' 
TABS,ioos:station:wmo:42046:1,2005-08-02T11:00:00Z,27.8903,-94.0367,4.0,3.607616942,231.414692,4.64,'11111222,11111222,11111222' 
TABS,ioos:station:wmo:42046:1,2005-08-02T11:30:00Z,27.8903,-94.0367,4.0,2.909467305,250.9423401,4.63,'11111222,11111222,11111222' 
TABS,ioos:station:wmo:42046:1,2005-08-02T12:00:00Z,27.8903,-94.0367,4.0,2.392655429,231.7890639,3.72,'11111222,11111222,11111222' 
TABS,ioos:station:wmo:42046:1,2005-08-02T12:30:00Z,27.8903,-94.0367,4.0,2.479516082,245.7090944,3.49,'11111222,11111222,11111222' 
TABS,ioos:station:wmo:42046:1,2005-08-02T13:00:00Z,27.8903,-94.0367,4.0,1.993715125,255.475882,3.41,'11111222,11111222,11111222' 
TABS,ioos:station:wmo:42046:1,2005-08-02T13:30:00Z,27.8903,-94.0367,4.0,2.385812231,278.4357478,3.37,'11111222,11111222,11111222' 
TABS,ioos:station:wmo:42046:1,2005-08-02T14:00:00Z,27.8903,-94.0367,4.0,0.966074531,216.1583113,1.98,'11111222,11111222,11111222' 
TABS,ioos:station:wmo:42046:1,2005-08-02T14:30:00Z,27.8903,-94.0367,4.0,1.836981219,238.1269376,2.47,'11111222,11111222,11111222' 
TABS,ioos:station:wmo:42046:1,2005-08-02T15:00:00Z,27.8903,-94.0367,4.0,3.464852089,224.7662468,4.79,'11111222,11111222,11111222' 
TABS,ioos:station:wmo:42046:1,2005-08-02T15:30:00Z,27.8903,-94.0367,4.0,2.544896854,242.6295013,3.29,'11111222,11111222,11111222' 
TABS,ioos:station:wmo:42046:1,2005-08-02T16:00:00Z,27.8903,-94.0367,4.0,4.356007346,207.0357897,6.27,'11111222,11111222,11111222' 
TABS,ioos:station:wmo:42046:1,2005-08-02T16:30:00Z,27.8903,-94.0367,4.0,2.38933045,204.7417967,3.03,'11111222,11111222,11111222' 
TABS,ioos:station:wmo:42046:1,2005-08-02T17:00:00Z,27.8903,-94.0367,4.0,1.245230902,223.0476007,1.74,'11111222,11111222,11111222' 
TABS,ioos:station:wmo:42046:1,2005-08-02T17:30:00Z,27.8903,-94.0367,4.0,0.313847097,239.3494037,0.79,'11111222,11111222,11111222' 
TABS,ioos:station:wmo:42046:1,2005-08-02T18:00:00Z,27.8903,-94.0367,4.0,0.563205114,286.5043228,1.24,'11111222,11111222,11111222' 
TABS,ioos:station:wmo:42046:1,2005-08-02T18:30:00Z,27.8903,-94.0367,4.0,0.228035085,254.744917,0.83,'11111222,11111222,11111222' 
TABS,ioos:station:wmo:42046:1,2005-08-02T19:00:00Z,27.8903,-94.0367,4.0,1.011780609,227.0026337,1.86,'11111222,11111222,11111222' 
TABS,ioos:station:wmo:42046:1,2005-08-02T19:30:00Z,27.8903,-94.0367,4.0,0.487954916,224.1697917,1.44,'11111222,11111222,11111222' 
TABS,ioos:station:wmo:42046:1,2005-08-02T20:00:00Z,27.8903,-94.0367,4.0,1.053233118,282.0567343,1.69,'11111222,11111222,11111222' 
TABS,ioos:station:wmo:42046:1,2005-08-02T20:30:00Z,27.8903,-94.0367,4.0,0.37,71.07497892,0.73,'11111222,11111222,11111222' 
TABS,ioos:station:wmo:42046:1,2005-08-02T21:00:00Z,27.8903,-94.0367,4.0,0.475394573,104.6212607,1.52,'11111222,11111222,11111222' 
TABS,ioos:station:wmo:42046:1,2005-08-02T21:30:00Z,27.8903,-94.0367,4.0,0.820365772,99.11826235,1.69,'11111222,11111222,11111222' 
TABS,ioos:station:wmo:42046:1,2005-08-02T22:00:00Z,27.8903,-94.0367,4.0,1.430104891,137.8344201,2.54,'11111222,11111222,11111222' 
TABS,ioos:station:wmo:42046:1,2005-08-02T22:30:00Z,27.8903,-94.0367,4.0,0.869770085,162.606929,1.84,'11111222,11111222,11111222' 
TABS,ioos:station:wmo:42046:1,2005-08-02T23:00:00Z,27.8903,-94.0367,4.0,0.937229961,129.8058989,1.61,'11111222,11111222,11111222' 
TABS,ioos:station:wmo:42046:1,2005-08-02T23:30:00Z,27.8903,-94.0367,4.0,1.217086685,118.4605304,2.17,'11111222,11111222,11111222' 
TABS,ioos:station:wmo:42046:1,2005-08-03T00:00:00Z,27.8903,-94.0367,4.0,1.03406963,127.5351423,2.11,'11111222,11111222,11111222' 
TABS,ioos:station:wmo:42046:1,2005-08-03T00:30:00Z,27.8903,-94.0367,4.0,1.665082581,94.47829002,2.74,'11111222,11111222,11111222' 
TABS,ioos:station:wmo:42046:1,2005-08-03T01:00:00Z,27.8903,-94.0367,4.0,2.122074457,113.9080255,3.7,'11111222,11111222,11111222' 
TABS,ioos:station:wmo:42046:1,2005-08-03T01:30:00Z,27.8903,-94.0367,4.0,1.809530326,110.0375842,2.98,'11111222,11111222,11111222' 
TABS,ioos:station:wmo:42046:1,2005-08-03T02:00:00Z,27.8903,-94.0367,4.0,1.98728458,136.0197036,2.66,'11111222,11111222,11111222' 
TABS,ioos:station:wmo:42046:1,2005-08-03T02:30:00Z,27.8903,-94.0367,4.0,2.25015555,120.4400741,3.28,'11111222,11111222,11111222' 
TABS,ioos:station:wmo:42046:1,2005-08-03T03:00:00Z,27.8903,-94.0367,4.0,2.318986848,130.6284193,3.4,'11111222,11111222,11111222' 
TABS,ioos:station:wmo:42046:1,2005-08-03T03:30:00Z,27.8903,-94.0367,4.0,2.48783038,146.3102217,3.74,'11111222,11111222,11111222' 
TABS,ioos:station:wmo:42046:1,2005-08-03T04:00:00Z,27.8903,-94.0367,4.0,3.266833329,135.0003157,4.23,'11111222,11111222,11111222' 
TABS,ioos:station:wmo:42046:1,2005-08-03T04:30:00Z,27.8903,-94.0367,4.0,3.800434186,145.1811836,5.11,'11111222,11111222,11111222' 
TABS,ioos:station:wmo:42046:1,2005-08-03T05:00:00Z,27.8903,-94.0367,4.0,3.998099549,153.5633994,5.31,'11111222,11111222,11111222' 
TABS,ioos:station:wmo:42046:1,2005-08-03T05:30:00Z,27.8903,-94.0367,4.0,4.445458357,170.9404989,5.74,'11111222,11111222,11111222' 
TABS,ioos:station:wmo:42046:1,2005-08-03T06:00:00Z,27.8903,-94.0367,4.0,4.591317894,178.627375,5.88,'11111222,11111222,11111222' 
TABS,ioos:station:wmo:42046:1,2005-08-03T06:30:00Z,27.8903,-94.0367,4.0,4.585771473,182.8750876,5.79,'11111222,11111222,11111222' 
TABS,ioos:station:wmo:42046:1,2005-08-03T07:00:00Z,27.8903,-94.0367,4.0,4.766560605,176.9937477,6.1,'11111222,11111222,11111222' 
TABS,ioos:station:wmo:42046:1,2005-08-03T07:30:00Z,27.8903,-94.0367,4.0,4.892156988,173.4272308,6.09,'11111222,11111222,11111222' 
TABS,ioos:station:wmo:42046:1,2005-08-03T08:00:00Z,27.8903,-94.0367,4.0,5.303300859,188.1302938,6.62,'11111222,11111222,11111222' 
TABS,ioos:station:wmo:42046:1,2005-08-03T08:30:00Z,27.8903,-94.0367,4.0,4.846607061,196.7900016,6.01,'11111222,11111222,11111222' 
TABS,ioos:station:wmo:42046:1,2005-08-03T09:00:00Z,27.8903,-94.0367,4.0,4.876822736,203.5689881,6.4,'11111222,11111222,11111222' 
TABS,ioos:station:wmo:42046:1,2005-08-03T09:30:00Z,27.8903,-94.0367,4.0,4.893025649,199.5830976,6.02,'11111222,11111222,11111222' 
TABS,ioos:station:wmo:42046:1,2005-08-03T10:00:00Z,27.8903,-94.0367,4.0,3.74200481,216.9618908,4.91,'11111222,11111222,11111222' 
TABS,ioos:station:wmo:42046:1,2005-08-03T10:30:00Z,27.8903,-94.0367,4.0,3.487491935,234.8061751,4.58,'11111222,11111222,11111222' 
TABS,ioos:station:wmo:42046:1,2005-08-03T11:00:00Z,27.8903,-94.0367,4.0,3.522413945,234.0085879,4.49,'11111222,11111222,11111222' 
TABS,ioos:station:wmo:42046:1,2005-08-03T11:30:00Z,27.8903,-94.0367,4.0,3.584368843,245.4370398,4.48,'11111222,11111222,11111222' 
TABS,ioos:station:wmo:42046:1,2005-08-03T12:00:00Z,27.8903,-94.0367,4.0,2.862254356,236.2544922,4.02,'11111222,11111222,11111222' 
TABS,ioos:station:wmo:42046:1,2005-08-03T12:30:00Z,27.8903,-94.0367,4.0,2.57670332,261.7441306,3.57,'11111222,11111222,11111222' 
TABS,ioos:station:wmo:42046:1,2005-08-03T13:00:00Z,27.8903,-94.0367,4.0,2.387990787,252.7032686,3.13,'11111222,11111222,11111222' 
TABS,ioos:station:wmo:42046:1,2005-08-03T13:30:00Z,27.8903,-94.0367,4.0,2.148324929,277.4888817,3.04,'11111222,11111222,11111222' 
TABS,ioos:station:wmo:42046:1,2005-08-03T14:00:00Z,27.8903,-94.0367,4.0,1.794129315,298.2790604,3.02,'11111222,11111222,11111222' 
TABS,ioos:station:wmo:42046:1,2005-08-03T14:30:00Z,27.8903,-94.0367,4.0,1.917550521,301.7836016,2.87,'11111222,11111222,11111222' 
TABS,ioos:station:wmo:42046:1,2005-08-03T15:00:00Z,27.8903,-94.0367,4.0,0.938136451,305.8925818,1.75,'11111222,11111222,11111222' 
TABS,ioos:station:wmo:42046:1,2005-08-03T15:30:00Z,27.8903,-94.0367,4.0,1.271377206,289.2900011,1.9,'11111222,11111222,11111222' 
TABS,ioos:station:wmo:42046:1,2005-08-03T16:00:00Z,27.8903,-94.0367,4.0,2.394535446,302.0306716,3.27,'11111222,11111222,11111222' 
TABS,ioos:station:wmo:42046:1,2005-08-03T16:30:00Z,27.8903,-94.0367,4.0,1.693664666,338.8894634,2.35,'11111222,11111222,11111222' 
TABS,ioos:station:wmo:42046:1,2005-08-03T17:00:00Z,27.8903,-94.0367,4.0,1.606393476,317.2703391,2.81,'11111222,11111222,11111222' 
TABS,ioos:station:wmo:42046:1,2005-08-03T17:30:00Z,27.8903,-94.0367,4.0,1.687157373,331.308088,2.91,'11111222,11111222,11111222' 
TABS,ioos:station:wmo:42046:1,2005-08-03T18:00:00Z,27.8903,-94.0367,4.0,1.78600112,323.1941389,3.59,'11111222,11111222,11111222' 
TABS,ioos:station:wmo:42046:1,2005-08-03T18:30:00Z,27.8903,-94.0367,4.0,1.196160524,339.4437924,2.31,'11111222,11111222,11111222' 
TABS,ioos:station:wmo:42046:1,2005-08-03T19:00:00Z,27.8903,-94.0367,4.0,1.40064271,326.650167,2.35,'11111222,11111222,11111222' 
TABS,ioos:station:wmo:42046:1,2005-08-03T19:30:00Z,27.8903,-94.0367,4.0,1.458903698,326.7455007,2.38,'11111222,11111222,11111222' 
TABS,ioos:station:wmo:42046:1,2005-08-03T20:00:00Z,27.8903,-94.0367,4.0,0.605309838,7.59441515,1.66,'11111222,11111222,11111222' 
TABS,ioos:station:wmo:42046:1,2005-08-03T20:30:00Z,27.8903,-94.0367,4.0,1.375390854,13.02559973,2.54,'11111222,11111222,11111222' 
TABS,ioos:station:wmo:42046:1,2005-08-03T21:00:00Z,27.8903,-94.0367,4.0,0.776659514,34.50823183,1.51,'11111222,11111222,11111222' 
TABS,ioos:station:wmo:42046:1,2005-08-03T21:30:00Z,27.8903,-94.0367,4.0,0.240416306,106.9278944,0.86,'11111222,11111222,11111222' 
TABS,ioos:station:wmo:42046:1,2005-08-03T22:00:00Z,27.8903,-94.0367,4.0,0.948472456,114.9442679,1.93,'11111222,11111222,11111222' 
TABS,ioos:station:wmo:42046:1,2005-08-03T22:30:00Z,27.8903,-94.0367,4.0,1.40014285,111.8017794,2.33,'11111222,11111222,11111222' 
TABS,ioos:station:wmo:42046:1,2005-08-03T23:00:00Z,27.8903,-94.0367,4.0,1.86601179,109.4063463,3.34,'11111222,11111222,11111222' 
TABS,ioos:station:wmo:42046:1,2005-08-03T23:30:00Z,27.8903,-94.0367,4.0,1.519802619,129.6610914,2.64,'11111222,11111222,11111222' 
TABS,ioos:station:wmo:42046:1,2005-08-04T00:00:00Z,27.8903,-94.0367,4.0,2.311060363,91.73612145,3.6,'11111222,11111222,11111222' 
TABS,ioos:station:wmo:42046:1,2005-08-04T00:30:00Z,27.8903,-94.0367,4.0,2.151882896,92.39744384,2.96,'11111222,11111222,11111222' 
TABS,ioos:station:wmo:42046:1,2005-08-04T01:00:00Z,27.8903,-94.0367,4.0,2.217408397,72.95388178,3.29,'11111222,11111222,11111222' 
TABS,ioos:station:wmo:42046:1,2005-08-04T01:30:00Z,27.8903,-94.0367,4.0,1.172774488,101.3103269,2.41,'11111222,11111222,11111222' 
TABS,ioos:station:wmo:42046:1,2005-08-04T02:00:00Z,27.8903,-94.0367,4.0,1.485294584,129.2625944,2.26,'11111222,11111222,11111222' 
TABS,ioos:station:wmo:42046:1,2005-08-04T02:30:00Z,27.8903,-94.0367,4.0,1.509867544,159.0444827,2.16,'11111222,11111222,11111222' 
TABS,ioos:station:wmo:42046:1,2005-08-04T03:00:00Z,27.8903,-94.0367,4.0,1.884728097,161.7575713,2.95,'11111222,11111222,11111222' 
TABS,ioos:station:wmo:42046:1,2005-08-04T03:30:00Z,27.8903,-94.0367,4.0,2.487126856,159.5251012,3.85,'11111222,11111222,11111222' 
TABS,ioos:station:wmo:42046:1,2005-08-04T04:00:00Z,27.8903,-94.0367,4.0,2.223353323,162.4617495,3.17,'11111222,11111222,11111222' 
TABS,ioos:station:wmo:42046:1,2005-08-04T04:30:00Z,27.8903,-94.0367,4.0,2.34940418,174.8720314,3.3,'11111222,11111222,11111222' 
TABS,ioos:station:wmo:42046:1,2005-08-04T05:00:00Z,27.8903,-94.0367,4.0,1.936310925,149.5947479,3.07,'11111222,11111222,11111222' 
TABS,ioos:station:wmo:42046:1,2005-08-04T05:30:00Z,27.8903,-94.0367,4.0,2.221823575,145.4519242,3.26,'11111222,11111222,11111222' 
TABS,ioos:station:wmo:42046:1,2005-08-04T06:00:00Z,27.8903,-94.0367,4.0,2.155411794,124.7963658,2.93,'11111222,11111222,11111222' 
TABS,ioos:station:wmo:42046:1,2005-08-04T06:30:00Z,27.8903,-94.0367,4.0,2.415802144,131.4762953,3.44,'11111222,11111222,11111222' 
TABS,ioos:station:wmo:42046:1,2005-08-04T07:00:00Z,27.8903,-94.0367,4.0,3.489412558,151.9664241,4.31,'11111222,11111222,11111222' 
TABS,ioos:station:wmo:42046:1,2005-08-04T07:30:00Z,27.8903,-94.0367,4.0,3.072474573,144.1374453,4.11,'11111222,11111222,11111222' 
TABS,ioos:station:wmo:42046:1,2005-08-04T08:00:00Z,27.8903,-94.0367,4.0,3.470864446,154.3949814,4.34,'11111222,11111222,11111222' 
TABS,ioos:station:wmo:42046:1,2005-08-04T08:30:00Z,27.8903,-94.0367,4.0,3.712950309,162.4437041,5.24,'11111222,11111222,11111222' 
TABS,ioos:station:wmo:42046:1,2005-08-04T09:00:00Z,27.8903,-94.0367,4.0,3.600124998,180.4776631,5.05,'11111222,11111222,11111222' 
TABS,ioos:station:wmo:42046:1,2005-08-04T09:30:00Z,27.8903,-94.0367,4.0,3.126419678,166.4973806,4.26,'11111222,11111222,11111222' 
TABS,ioos:station:wmo:42046:1,2005-08-04T10:00:00Z,27.8903,-94.0367,4.0,3.141289544,178.3584281,4.2,'11111222,11111222,11111222' 
TABS,ioos:station:wmo:42046:1,2005-08-04T10:30:00Z,27.8903,-94.0367,4.0,3.895137995,182.9434105,5.02,'11111222,11111222,11111222' 
TABS,ioos:station:wmo:42046:1,2005-08-04T11:00:00Z,27.8903,-94.0367,4.0,3.98,180.0002105,5.11,'11111222,11111222,11111222' 
TABS,ioos:station:wmo:42046:1,2005-08-04T11:30:00Z,27.8903,-94.0367,4.0,3.203154695,185.1946272,4.44,'11111222,11111222,11111222' 
TABS,ioos:station:wmo:42046:1,2005-08-04T12:00:00Z,27.8903,-94.0367,4.0,3.229814236,196.9203052,4.0,'11111222,11111222,11111222' 
TABS,ioos:station:wmo:42046:1,2005-08-04T12:30:00Z,27.8903,-94.0367,4.0,3.87765393,205.8383041,4.92,'11111222,11111222,11111222' 
TABS,ioos:station:wmo:42046:1,2005-08-04T13:00:00Z,27.8903,-94.0367,4.0,3.852531635,209.892596,4.92,'11111222,11111222,11111222' 
TABS,ioos:station:wmo:42046:1,2005-08-04T13:30:00Z,27.8903,-94.0367,4.0,3.863948757,238.6548592,5.49,'11111222,11111222,11111222' 
TABS,ioos:station:wmo:42046:1,2005-08-04T14:00:00Z,27.8903,-94.0367,4.0,3.150650726,255.4786184,4.23,'11111222,11111222,11111222' 
TABS,ioos:station:wmo:42046:1,2005-08-04T14:30:00Z,27.8903,-94.0367,4.0,3.342932844,267.5997912,4.76,'11111222,11111222,11111222' 
TABS,ioos:station:wmo:42046:1,2005-08-04T15:00:00Z,27.8903,-94.0367,4.0,2.678843034,301.2571292,3.69,'11111222,11111222,11111222' 
TABS,ioos:station:wmo:42046:1,2005-08-04T15:30:00Z,27.8903,-94.0367,4.0,2.164532282,301.7808408,2.9,'11111222,11111222,11111222' 
TABS,ioos:station:wmo:42046:1,2005-08-04T16:00:00Z,27.8903,-94.0367,4.0,2.42330353,311.3192812,3.28,'11111222,11111222,11111222' 
TABS,ioos:station:wmo:42046:1,2005-08-04T16:30:00Z,27.8903,-94.0367,4.0,3.07390631,347.4103594,4.11,'11111222,11111222,11111222' 
TABS,ioos:station:wmo:42046:1,2005-08-04T17:00:00Z,27.8903,-94.0367,4.0,3.050590107,358.8728075,3.96,'11111222,11111222,11111222' 
TABS,ioos:station:wmo:42046:1,2005-08-04T17:30:00Z,27.8903,-94.0367,4.0,7.769716855,18.45801461,9.92,'11111222,11111222,11111222' 
TABS,ioos:station:wmo:42046:1,2005-08-04T18:00:00Z,27.8903,-94.0367,4.0,9.742371375,42.08744543,12.96,'11111222,11111222,11111222' 
TABS,ioos:station:wmo:42046:1,2005-08-04T18:30:00Z,27.8903,-94.0367,4.0,6.705892931,70.21361145,8.56,'11111222,11111222,11111222' 